Theta_e
312 314 316 317 319 322 324 325 330 338 341 338 338 340 344 344 346 347 342 343 341 339 333 330 328 330 330 327 327 329 331 331 327 318 314 312 309 309 307 307 308 309 310 310 311 311 311 311 311
312 319 316 316 320 323 325 331 341 340 337 336 335 336 340 344 343 342 342 342 341 337 333 332 330 329 329 329 331 332 331 326 317 314 312 308 309 308 308 309 310 312 312 311 311 310 309 309 309
313 316 315 318 321 325 328 336 336 335 335 334 335 334 336 339 340 341 341 342 341 338 337 333 332 332 332 332 332 331 324 316 314 312 309 310 309 309 310 312 312 311 311 310 309 309 311 311 311
316 316 315 319 322 324 332 337 334 335 334 333 332 334 335 334 334 341 341 340 339 338 336 334 333 333 332 333 331 323 316 314 312 309 310 310 310 311 313 311 310 310 309 310 310 311 312 313 313
316 316 317 320 322 323 325 334 334 334 332 333 332 331 331 326 330 340 340 338 338 337 334 333 333 333 332 329 323 316 314 313 311 309 311 311 312 313 311 310 310 310 310 311 312 313 313 313 314
317 316 320 322 322 325 326 334 334 334 332 330 331 333 333 329 327 334 338 338 337 336 330 329 333 332 328 320 318 315 313 312 310 311 312 313 313 311 310 311 311 311 312 313 313 313 313 313 313
317 318 320 322 323 326 331 332 332 331 329 331 329 336 338 333 332 328 333 336 334 329 328 331 332 330 322 318 316 314 313 310 312 314 314 313 312 311 311 311 311 312 313 313 313 313 313 313 315
316 319 320 321 322 332 328 328 328 329 328 328 327 330 335 338 336 329 328 332 328 324 330 332 329 323 319 316 313 313 311 313 316 315 313 313 313 313 312 312 312 313 313 314 314 314 314 316 317
317 318 320 322 327 331 326 329 329 329 327 331 331 337 337 338 336 330 326 328 331 332 331 327 321 318 316 313 314 313 314 316 316 316 320 325 325 325 322 313 313 313 314 315 315 315 316 318 318
318 319 320 326 330 328 325 327 328 325 326 328 334 340 340 338 334 332 333 332 326 329 331 331 329 329 325 313 314 314 317 319 319 318 328 327 327 326 327 322 314 315 317 319 320 319 318 319 318
318 319 320 325 326 326 324 325 328 326 327 327 335 339 340 339 337 335 336 332 331 331 331 330 329 326 325 320 314 319 325 328 328 326 328 328 326 325 326 324 323 323 322 322 320 319 319 317 316
319 319 319 323 327 327 327 327 327 326 324 322 327 339 338 338 337 337 334 333 331 330 329 329 327 325 324 323 326 326 328 327 327 326 326 325 325 326 324 324 323 322 321 320 319 318 317 317 315
318 319 320 320 320 325 325 326 326 324 323 324 327 338 338 336 336 336 334 328 328 327 327 326 322 325 323 327 326 329 328 328 326 325 323 325 326 324 323 322 322 321 320 318 317 317 316 313 311
319 319 320 320 322 323 325 327 327 326 326 337 338 338 336 335 334 330 325 327 327 326 325 323 320 321 327 328 328 327 327 326 325 327 327 326 324 322 324 323 321 319 318 317 314 312 310 308 307
320 319 319 321 322 324 323 325 323 327 328 333 334 333 332 332 329 325 326 327 326 326 325 325 325 328 329 328 326 326 326 325 321 324 322 322 323 323 323 322 321 319 316 311 310 309 306 305 304
318 319 321 321 321 322 325 326 323 326 328 331 332 331 330 328 325 324 326 327 326 328 328 328 329 329 328 327 326 326 325 320 319 319 319 321 322 322 321 320 318 313 310 309 307 305 304 301 301
319 318 320 322 321 323 324 324 324 324 327 327 327 326 326 324 323 324 326 328 329 329 330 330 330 328 326 325 324 324 323 319 319 318 319 319 319 318 316 314 312 310 308 306 305 303 300 300 301
319 318 320 321 321 321 324 323 321 323 326 326 325 324 322 321 322 323 324 327 329 331 330 329 327 325 324 323 323 324 323 322 320 319 320 317 315 313 312 310 309 308 306 305 303 302 303 303 302
320 320 321 320 320 319 319 320 320 322 325 326 326 325 323 322 322 323 324 324 327 332 331 329 328 324 324 323 324 323 321 317 319 320 316 314 313 312 310 308 308 306 306 304 303 303 303 302 302
320 321 321 319 318 318 319 319 321 322 323 326 327 326 326 324 323 327 327 327 329 331 332 330 328 327 325 324 324 319 321 320 318 316 314 313 312 310 308 308 307 306 303 301 303 303 302 302 302
320 323 323 322 319 318 319 318 321 322 322 324 326 327 327 326 327 328 329 329 328 332 332 329 328 326 325 324 323 321 317 316 315 314 313 313 311 309 308 306 305 304 303 304 303 303 302 302 301
322 323 322 322 322 319 323 323 322 322 323 324 324 325 327 327 329 329 330 331 331 333 331 328 327 324 326 324 320 318 317 316 315 315 314 313 312 310 308 306 305 304 304 303 302 302 301 301 301
322 323 323 322 321 324 322 323 325 323 323 325 327 326 326 327 328 329 331 331 331 330 329 329 327 326 324 318 318 317 317 316 316 315 314 313 310 309 306 305 305 304 304 303 302 301 301 301 300
323 323 323 322 323 326 323 325 325 324 325 325 325 326 327 328 328 330 331 332 330 330 329 328 325 325 321 319 318 317 318 316 315 314 313 310 308 306 304 304 304 304 304 300 299 298 298 297 298
322 322 326 328 329 328 321 322 323 324 325 326 326 326 327 328 330 331 331 331 330 328 327 327 324 321 320 318 318 318 317 315 313 311 310 309 306 305 304 303 303 300 298 298 297 297 297 297 297
323 322 328 328 329 327 324 323 324 324 323 324 326 325 328 330 330 328 329 327 326 326 325 323 322 320 319 318 318 317 314 312 309 309 308 306 304 303 302 300 298 297 297 296 296 296 296 296 298
323 322 323 323 329 332 321 318 325 324 324 324 325 326 328 328 327 326 325 324 324 323 322 320 320 319 318 318 316 314 310 309 308 306 306 303 302 300 299 297 296 295 295 296 296 296 296 297 297
321 321 324 322 323 323 320 320 326 323 323 324 326 327 328 327 326 324 322 321 321 321 321 320 320 319 317 316 314 311 309 307 306 305 302 301 300 299 297 296 295 295 296 296 296 296 296 295 295
323 323 320 319 325 327 328 321 320 321 322 323 325 327 327 326 325 324 321 321 321 321 321 321 320 317 315 313 311 308 307 305 303 302 301 300 298 297 297 295 295 296 296 296 295 294 293 293 293
321 322 323 332 324 325 329 323 320 320 321 321 322 325 326 326 325 323 322 321 321 321 321 320 319 316 313 310 308 307 305 303 302 301 300 298 298 297 296 295 295 295 295 294 292 292 292 291 291
Wind_Speed
5 2 4 11 7 8 16 19 7 14 5 12 16 20 18 20 8 7 23 23 26 25 26 24 22 22 20 18 16 14 12 10 9 9 8 8 8 10 11 11 11 11 12 12 14 15 15 16 16
7 9 11 11 10 13 13 10 16 13 11 12 16 16 15 10 16 17 18 23 26 24 27 26 22 21 19 16 15 13 11 10 9 8 8 8 9 11 10 10 10 11 13 15 16 18 20 21 21
7 4 11 7 12 15 11 9 10 6 10 10 9 13 7 5 9 3 17 26 30 21 22 25 22 20 19 17 14 12 11 10 9 9 9 9 9 10 10 10 12 14 15 17 19 20 21 21 22
3 8 11 8 19 21 7 20 22 12 13 7 14 12 11 10 5 4 14 22 27 28 22 23 20 19 18 16 13 12 11 10 10 10 10 9 9 9 11 12 13 15 17 17 18 17 17 19 19
12 12 10 15 18 19 5 14 15 9 5 9 10 7 11 9 15 12 12 13 23 24 26 25 20 19 17 15 13 12 11 11 10 10 10 9 9 11 12 12 13 15 15 15 15 14 15 15 16
17 17 13 15 22 11 2 12 15 12 14 16 1 14 10 14 13 17 13 13 21 22 23 21 18 18 17 15 13 12 13 12 10 11 10 9 10 11 12 11 12 12 12 12 11 11 11 12 13
15 12 16 19 16 11 3 12 17 2 2 21 9 6 10 16 11 13 13 10 13 28 25 23 19 17 16 15 14 13 13 12 12 12 11 11 11 10 9 8 8 9 9 8 8 9 9 11 12
20 13 21 19 17 6 24 32 25 25 13 11 8 6 8 17 16 12 8 15 16 28 20 20 21 18 16 15 15 14 13 13 13 13 11 11 10 7 6 5 5 6 6 7 8 8 10 12 15
20 12 14 19 10 5 25 19 34 7 8 7 8 13 20 19 20 20 17 21 19 25 23 20 18 14 13 14 15 14 14 14 14 13 13 12 11 7 6 5 4 5 6 8 10 10 10 11 12
13 12 20 3 11 6 9 16 41 4 4 10 14 21 22 20 23 22 21 22 21 22 20 18 18 14 10 15 15 14 14 13 12 12 12 10 6 1 2 8 7 7 8 8 11 12 9 6 7
17 15 16 3 18 19 13 27 39 4 8 11 8 22 22 21 20 20 18 21 26 22 23 23 23 22 16 11 13 16 13 11 7 5 7 7 3 2 4 7 7 8 9 6 8 9 12 14 14
14 18 21 4 15 17 14 19 11 11 3 17 7 20 23 20 18 19 20 24 22 15 16 18 19 19 12 15 13 10 11 7 6 6 6 3 3 2 5 4 0 4 4 6 5 6 13 12 16
14 17 8 7 5 8 11 8 8 14 9 25 23 22 22 17 18 22 24 22 20 18 18 17 22 19 18 16 17 15 17 12 7 6 6 4 7 5 5 8 5 10 9 9 10 12 16 18 18
10 16 4 3 4 3 9 7 13 6 6 26 20 21 19 18 19 22 19 22 19 20 18 15 20 20 20 19 20 18 15 13 8 5 2 5 10 10 3 5 9 11 11 11 12 15 18 19 15
5 7 4 2 3 3 13 9 2 6 11 13 16 18 17 18 19 18 20 20 21 19 20 21 19 20 21 20 21 20 17 9 4 3 5 8 14 13 12 11 12 11 12 13 16 18 16 16 19
8 6 5 6 12 11 13 9 8 7 15 17 19 19 19 19 19 19 17 19 18 22 21 19 22 23 24 22 21 17 11 7 6 4 8 16 11 9 7 8 9 9 11 15 17 13 20 19 21
1 6 9 15 14 6 11 14 14 13 15 19 20 21 21 22 21 20 17 20 22 23 23 24 25 25 20 16 13 14 13 18 18 17 9 6 4 4 4 7 7 9 7 9 15 22 22 21 19
8 14 16 12 13 11 16 14 14 18 19 19 20 20 22 23 21 21 20 19 21 24 29 24 23 20 17 15 14 15 16 20 21 16 7 7 4 3 3 8 9 11 8 16 22 21 17 18 17
11 15 15 11 13 8 8 10 12 18 16 21 20 21 20 21 18 21 18 17 21 25 23 19 19 19 19 17 15 14 17 10 12 12 8 6 3 5 5 6 7 11 12 12 13 15 18 19 20
16 1 10 13 9 10 13 11 14 14 17 19 20 23 23 23 25 21 19 19 19 24 22 21 20 15 14 14 12 9 9 9 8 9 9 8 7 7 4 8 7 10 15 15 12 17 22 21 16
8 12 7 9 7 11 11 13 15 15 18 21 25 26 28 28 27 20 20 20 21 22 25 20 21 16 15 10 10 10 10 9 11 9 10 13 8 3 3 7 10 15 15 12 16 18 18 21 26
2 11 8 16 15 7 9 9 17 13 13 16 23 24 25 26 28 23 21 22 21 22 17 16 16 14 14 16 14 12 14 13 12 11 6 11 9 9 6 10 15 16 16 18 18 20 24 28 27
3 9 16 16 6 4 7 6 12 12 18 16 13 16 19 24 24 23 25 24 21 22 21 19 16 19 19 19 15 14 10 14 15 13 14 10 7 12 9 10 11 14 14 16 20 21 20 22 25
13 10 15 9 9 7 16 11 14 13 11 19 13 19 19 17 19 21 23 25 18 21 20 23 21 23 20 17 16 15 13 10 12 11 9 6 9 9 10 14 16 19 22 26 24 26 26 26 26
8 10 3 7 7 4 9 5 5 19 19 17 20 18 18 19 18 19 19 21 24 24 23 23 22 22 20 19 16 15 13 12 12 13 15 14 13 11 14 17 21 23 20 21 23 25 25 25 25
15 7 3 2 5 7 5 5 5 12 11 8 16 15 16 16 17 19 22 25 26 25 23 22 23 21 19 18 16 17 15 14 13 8 12 12 12 15 16 17 15 20 21 23 24 24 23 23 23
9 4 4 7 3 2 6 17 7 8 8 8 14 17 18 19 20 22 24 24 24 23 22 23 23 22 23 19 20 19 16 13 10 15 16 14 12 10 12 16 19 19 20 20 19 19 19 20 21
5 6 4 2 2 4 8 10 9 6 8 6 11 16 18 19 20 23 26 25 24 23 22 21 22 25 23 23 24 19 11 13 15 13 11 12 12 13 13 16 17 17 16 16 20 22 21 21 21
6 7 5 6 4 1 4 3 7 6 8 6 9 17 20 21 23 24 26 25 22 23 23 22 21 24 23 21 20 15 17 17 9 9 11 11 11 12 14 15 16 15 15 19 23 19 15 17 16
9 11 9 3 5 2 1 6 4 5 6 6 9 15 20 23 23 25 26 25 23 23 22 23 22 21 20 20 18 14 17 9 9 10 12 11 12 12 15 16 14 15 17 22 19 15 17 16 12
Wind_Direction
259 277 309 269 244 234 253 254 302 5 71 56 55 67 71 38 3 98 141 154 156 167 152 148 146 142 142 140 136 135 135 128 119 107 98 96 92 89 82 76 72 66 63 61 58 57 55 51 47
231 271 258 265 239 260 251 74 40 57 98 82 65 75 55 58 72 115 124 150 142 158 151 150 148 147 143 139 139 141 133 126 119 112 113 110 107 97 88 79 71 68 68 67 65 62 61 60 58
233 231 260 234 237 250 279 87 78 119 104 97 100 78 76 90 54 112 152 148 142 146 159 149 150 149 143 142 144 138 133 125 122 124 121 115 106 97 92 86 81 82 79 75 72 70 67 63 60
248 232 251 258 258 257 109 145 171 129 111 105 117 99 102 115 89 134 156 143 146 153 153 143 152 144 141 140 138 136 134 132 136 129 117 115 111 104 97 92 91 88 84 80 77 70 66 64 59
241 262 238 254 250 256 141 127 154 146 115 142 132 117 113 106 128 128 149 149 158 153 150 141 150 145 142 138 144 142 138 138 131 123 121 123 118 109 102 99 98 91 86 80 71 68 62 56 48
236 228 262 251 246 260 77 123 91 93 69 23 292 121 112 137 142 150 161 166 163 155 143 143 149 147 141 143 145 142 137 132 129 126 127 125 114 105 103 104 96 90 82 73 65 56 46 42 30
250 253 247 266 274 224 127 77 86 44 96 193 142 112 114 140 150 132 169 154 126 122 145 161 153 146 143 145 146 141 134 131 132 132 124 116 107 105 105 98 89 78 65 53 43 31 24 21 15
239 256 271 275 274 97 2 336 140 173 213 128 148 134 135 154 165 157 153 169 132 134 152 145 154 148 149 150 145 141 138 138 136 124 114 107 95 97 95 91 75 59 39 17 13 3 6 17 12
246 263 265 271 294 50 41 1 301 199 152 96 98 93 136 162 159 153 130 142 161 156 151 145 133 137 149 148 142 140 140 136 130 121 101 91 52 36 45 24 30 11 3 359 353 352 14 25 8
236 245 256 108 127 157 123 210 265 212 170 130 106 110 126 138 131 153 156 151 118 138 137 128 112 118 116 144 144 137 134 125 122 120 100 107 125 136 335 0 349 344 355 3 3 359 11 332 324
229 250 273 310 141 159 171 216 241 296 43 355 118 134 137 140 147 154 153 138 135 136 143 143 146 145 153 153 137 133 117 110 113 135 97 120 183 118 337 2 356 7 358 10 351 347 312 338 333
248 250 261 64 158 165 184 205 67 46 124 319 214 146 148 153 152 159 151 136 137 131 133 172 173 157 139 121 120 117 134 143 147 160 162 189 151 286 190 204 56 3 275 306 291 298 292 310 324
238 259 234 32 273 121 101 19 243 180 160 187 232 158 146 156 160 159 141 139 136 139 147 149 144 147 148 131 148 150 155 169 169 193 205 195 192 218 251 244 231 238 246 262 291 295 310 317 317
222 253 120 281 267 152 107 76 273 127 86 122 122 134 149 157 159 142 140 145 145 148 152 165 154 154 140 159 162 170 161 183 181 190 211 240 246 269 193 217 230 258 289 307 311 316 322 319 320
300 270 90 250 196 329 104 229 146 91 104 114 132 139 146 159 146 144 151 145 154 154 161 151 151 149 168 174 174 182 182 168 178 226 261 287 261 253 230 249 261 279 303 312 314 322 319 322 319
242 186 181 217 239 205 106 254 135 186 132 144 149 152 155 151 159 161 156 155 160 161 153 152 158 179 185 180 179 176 178 212 164 220 294 300 260 234 240 258 273 294 322 320 322 321 323 327 323
271 189 180 243 207 168 116 259 152 162 158 153 158 158 163 163 163 161 160 164 165 164 165 168 188 190 187 177 185 195 209 208 234 255 262 237 198 213 261 282 301 314 331 306 312 322 326 326 330
210 252 201 214 174 206 179 189 160 175 167 160 162 168 172 168 170 166 173 170 175 179 184 194 199 184 193 210 226 234 220 228 255 251 227 227 199 250 300 311 313 332 328 318 323 330 331 327 322
224 239 211 218 156 206 194 162 171 177 184 163 167 168 169 167 167 174 178 180 180 194 211 202 205 197 200 213 225 229 260 207 193 195 203 203 222 252 189 211 308 313 320 310 316 314 315 325 318
277 70 315 120 158 201 213 217 175 188 192 177 175 173 179 180 178 168 181 188 184 195 191 206 212 210 204 217 229 191 180 175 177 193 189 165 212 229 318 282 279 272 304 320 309 303 313 312 317
282 123 306 352 237 213 244 224 169 189 200 202 190 188 184 185 174 175 187 192 191 197 202 208 207 210 167 211 186 177 135 121 164 204 191 202 228 236 263 298 292 301 309 302 302 309 311 300 300
34 338 201 227 214 228 14 284 179 172 205 210 206 194 189 191 175 182 187 194 194 200 211 205 197 173 175 186 167 170 166 185 198 214 208 219 263 272 253 266 287 297 294 302 300 293 291 297 295
174 236 265 261 257 112 345 317 224 212 215 218 203 205 200 189 183 186 189 209 200 209 196 184 179 183 185 162 184 181 188 180 177 174 192 202 265 279 289 301 298 296 289 292 295 295 293 296 298
175 212 244 262 284 192 199 193 155 195 221 266 218 204 211 185 187 183 194 190 200 192 179 182 184 185 181 176 185 183 207 192 188 200 226 235 239 230 273 267 267 269 277 293 291 292 293 294 294
224 264 272 25 332 233 265 252 332 194 212 190 196 181 196 194 180 184 170 168 174 178 181 184 179 180 181 190 188 197 199 195 194 192 235 237 246 257 262 269 275 289 297 295 294 293 295 297 296
318 269 107 327 212 313 10 245 106 105 126 123 153 176 175 171 177 178 175 172 172 177 182 178 183 187 188 193 195 205 194 206 217 254 225 241 246 249 261 279 283 288 294 295 295 294 293 296 293
228 265 149 271 108 313 271 282 112 112 111 142 153 169 170 177 178 178 177 179 179 184 188 184 187 190 192 196 200 195 196 219 197 217 227 259 249 259 269 278 295 301 300 303 310 305 300 289 293
265 345 283 207 281 270 302 275 115 162 136 155 161 173 176 184 185 188 185 186 190 193 194 189 197 196 193 194 204 208 218 204 216 254 230 234 251 262 288 294 298 299 306 311 290 287 280 291 297
177 242 231 284 277 69 315 75 31 87 129 159 188 180 183 190 192 194 191 193 195 195 196 197 197 192 190 190 206 202 202 212 239 211 233 242 253 277 285 295 297 298 294 280 288 302 311 290 290
314 297 226 176 269 170 341 282 87 104 112 158 204 194 192 196 201 196 196 194 198 204 203 196 199 204 196 196 203 221 223 196 212 227 242 254 261 282 293 295 297 294 288 300 302 300 297 307 300